Temperature
16 17 18 18 18 18 17 16 16 16 16 17 17 17 18 18 18 18 18 18 18 18 18 18 18 18 18 18 17 17 17 17 17 16 16 16 16 15 15 15 15 15 15 14
16 17 17 17 18 17 17 17 17 17 16 16 17 18 17 18 18 18 18 18 18 18 18 18 18 18 18 18 17 17 17 17 17 16 16 16 16 15 15 15 15 15 14 14
14 16 16 16 17 17 17 17 17 16 16 16 16 16 17 18 18 18 18 18 18 18 18 18 17 17 17 17 17 17 17 17 16 16 16 16 15 15 15 15 15 14 14 14
13 15 15 16 17 17 17 17 16 16 16 16 17 17 18 18 18 18 18 18 18 17 17 17 17 17 17 17 17 17 17 17 16 16 16 16 15 15 15 15 14 14 14 14
13 14 14 16 17 17 16 16 16 16 16 17 17 17 17 18 18 18 18 18 18 17 17 17 17 17 17 17 17 17 17 16 16 16 16 16 15 15 15 15 14 14 14 14
12 14 14 15 17 18 17 15 16 16 16 16 16 14 15 18 18 18 18 18 18 17 17 17 17 17 17 17 17 17 16 16 16 16 16 16 15 15 15 15 14 14 14 14
12 13 13 15 16 17 16 15 17 17 17 16 16 16 17 18 18 18 18 18 17 17 17 17 17 17 16 16 16 16 16 16 16 16 16 16 15 15 15 15 14 14 14 14
12 12 13 15 16 15 15 17 17 17 17 17 17 17 17 17 18 18 17 17 17 17 17 16 16 16 16 16 16 16 16 16 16 16 15 15 15 15 15 14 14 14 14 13
12 13 15 16 16 17 17 16 17 17 17 17 17 17 17 17 17 17 17 17 17 17 16 16 16 16 16 16 16 16 15 15 16 15 15 15 15 15 14 14 14 14 13 13
12 12 14 15 16 16 16 16 17 17 17 17 17 17 17 17 17 17 17 16 16 16 16 16 16 16 16 16 16 15 15 15 15 15 15 15 15 14 14 14 14 13 13 13
12 12 14 15 15 16 16 16 16 17 17 17 17 16 16 16 16 16 16 16 16 16 16 16 15 15 15 15 15 15 15 15 15 15 15 15 14 14 14 14 14 13 13 13
12 13 13 14 15 15 15 16 16 16 16 16 16 16 16 16 16 16 16 16 16 16 15 15 15 15 15 15 15 15 15 15 15 14 14 14 14 14 14 13 13 13 13 13
14 14 14 15 15 15 15 16 16 16 16 16 16 16 16 16 16 16 15 15 15 15 15 15 15 15 15 15 15 15 14 14 14 14 14 14 14 13 13 13 13 13 12 12
14 14 14 14 14 15 15 15 16 16 16 16 16 15 15 15 15 15 15 15 15 15 15 15 15 14 14 14 14 14 14 14 14 14 14 14 13 13 13 13 13 12 12 12
13 14 14 14 14 14 15 15 15 15 15 15 15 15 15 14 14 15 14 14 14 14 14 14 14 14 14 14 14 14 14 13 13 13 13 13 13 13 12 12 12 12 12 12
13 13 13 13 13 13 14 14 15 14 14 14 14 14 14 14 14 14 14 14 14 14 14 14 14 14 13 13 13 13 13 13 13 13 13 13 12 12 12 12 12 11 11 11
12 12 12 12 13 13 13 14 14 14 14 14 14 14 14 13 13 13 13 13 13 13 13 13 13 13 13 13 13 13 13 13 13 12 12 12 12 12 12 11 11 11 11 11
12 12 12 12 12 12 13 13 13 13 13 13 13 13 13 13 13 13 13 12 12 12 12 13 13 13 13 12 12 12 12 12 12 12 12 12 12 11 11 11 11 11 10 10
11 11 12 12 12 12 12 12 12 13 13 13 13 12 12 12 12 12 12 12 12 12 12 12 12 12 12 12 12 12 12 11 11 11 11 11 11 11 10 10 10 10 10 10
11 11 11 11 11 11 11 12 12 12 12 12 12 12 12 12 11 12 11 11 11 11 11 11 12 12 12 12 12 11 11 11 11 11 11 10 10 10 10 10 10 10 9 9
10 10 10 10 10 11 11 11 11 11 11 11 11 11 11 11 11 11 11 11 11 11 11 11 11 11 11 11 11 11 11 11 10 10 10 10 10 10 9 9 9 9 9 9
9 9 9 10 10 10 10 10 10 10 10 10 10 10 10 10 10 10 10 10 10 10 10 10 10 10 10 10 10 10 10 10 10 10 10 9 9 9 9 9 8 8 8 8
8 9 9 9 9 9 9 9 9 10 10 9 9 9 9 9 9 9 9 9 9 9 9 9 10 9 9 9 9 9 9 9 9 9 9 9 8 8 8 8 8 8 7 7
8 8 8 8 8 8 8 8 9 9 9 9 9 9 9 9 9 9 9 9 9 9 9 9 9 9 9 9 9 9 9 9 9 8 8 8 8 8 8 7 7 7 7 7
7 7 8 8 8 8 8 8 8 8 8 8 8 8 8 8 8 8 8 8 8 8 8 8 8 8 8 8 8 8 8 8 8 8 8 8 7 7 7 7 6 6 6 6
7 7 7 7 7 7 7 7 7 7 7 7 7 7 7 7 7 7 8 8 8 8 8 8 7 7 7 7 7 7 7 7 7 7 7 7 6 6 6 6 6 5 5 5
6 7 7 7 7 7 7 7 7 7 7 7 7 7 7 7 7 7 7 7 7 7 7 7 7 7 7 7 7 7 7 7 6 6 6 6 6 6 5 5 5 4 4 4
Wind_Speed
6 6 5 5 6 5 5 7 7 7 7 8 6 6 5 3 3 3 4 5 6 6 5 5 6 6 7 7 7 8 8 8 8 8 7 6 6 6 5 5 6 5 5 4
3 4 4 6 7 7 7 5 6 5 6 6 4 2 2 2 3 3 4 5 6 6 6 5 6 6 6 7 7 7 9 9 8 7 7 7 6 6 5 5 4 5 5 5
4 4 3 6 7 7 6 5 6 7 8 3 2 4 5 5 5 5 5 5 7 7 7 7 7 7 8 7 6 7 8 8 8 8 8 8 7 6 6 5 4 4 5 5
2 0 6 7 5 5 5 5 5 5 6 6 7 7 6 6 7 6 6 6 6 7 6 6 6 5 6 6 6 7 7 7 8 8 8 7 7 7 6 5 5 5 4 5
3 3 5 5 4 3 4 6 5 5 5 5 4 1 4 5 6 7 8 6 6 7 6 6 6 6 6 5 5 6 6 7 8 9 9 8 8 7 6 5 5 4 5 5
4 4 6 7 5 3 2 5 5 5 4 3 2 2 6 6 4 5 5 5 5 5 5 6 6 7 7 6 6 7 7 7 7 9 10 10 9 8 5 5 6 5 4 5
5 5 7 7 4 1 3 6 4 5 5 5 5 7 7 5 4 4 4 4 5 5 5 6 6 7 7 7 8 8 6 5 6 8 9 9 8 6 6 6 5 5 4 4
5 5 7 5 2 5 6 4 3 5 6 6 5 4 4 4 4 4 4 4 4 5 4 4 6 8 8 8 7 5 5 5 6 7 7 7 7 6 6 7 6 5 4 3
7 8 5 3 5 5 4 3 4 4 5 5 4 3 3 3 3 4 4 4 4 5 4 3 6 8 9 8 6 6 5 5 5 6 5 6 7 7 6 6 6 5 5 4
3 6 5 5 5 4 3 4 5 4 4 4 4 4 3 3 3 3 3 4 4 4 5 4 5 6 7 7 6 7 6 5 5 5 5 5 5 6 7 7 6 6 6 5
4 6 4 5 4 4 4 3 3 2 3 5 5 5 4 4 4 3 3 3 4 5 5 5 4 4 5 6 7 7 6 5 5 5 5 5 5 5 6 7 8 8 7 7
6 6 4 7 7 5 4 4 3 2 2 3 4 4 3 3 3 3 3 3 3 4 4 4 4 4 5 6 7 8 6 5 4 4 4 4 4 2 2 4 6 8 8 7
7 6 6 7 7 5 4 4 3 3 3 3 2 2 2 2 2 2 2 3 4 4 4 4 4 3 4 4 6 7 7 6 5 5 5 5 5 5 3 2 2 5 7 8
5 3 4 5 5 5 4 4 2 2 2 3 2 1 1 1 1 2 3 4 4 3 3 3 3 3 3 4 5 6 6 5 5 5 5 5 5 5 5 5 3 2 3 5
6 5 6 5 4 4 3 2 1 1 1 1 2 2 1 2 2 3 2 2 3 3 2 3 3 3 3 4 5 5 5 5 5 5 5 5 5 4 4 5 4 3 2 2
4 3 3 3 3 4 3 2 3 3 2 2 2 2 2 2 2 2 1 3 4 3 3 3 3 3 3 4 4 4 4 6 6 5 5 4 4 4 4 5 5 4 4 4
3 3 3 3 3 4 4 4 4 4 4 3 3 2 1 1 1 1 1 1 3 3 3 4 4 3 4 5 5 4 3 4 6 5 5 5 5 5 5 5 5 5 5 5
5 6 6 5 4 4 4 3 3 3 4 4 3 2 2 2 3 2 2 1 1 0 2 3 3 3 4 5 4 4 3 3 4 4 4 4 4 4 5 5 5 5 3 3
3 3 3 3 3 4 3 3 3 3 3 3 3 3 3 3 3 2 1 1 1 2 3 2 3 3 4 4 4 3 4 4 3 3 3 4 4 4 4 4 4 4 4 4
2 2 2 2 2 2 2 2 2 2 1 2 3 2 1 1 1 2 2 1 2 3 2 1 2 2 3 4 4 3 4 4 4 3 3 3 3 4 4 4 4 4 4 4
2 2 2 1 1 2 2 1 1 1 1 1 2 2 2 2 2 2 2 0 2 1 1 1 1 2 2 3 3 3 3 3 4 4 3 3 3 3 3 3 3 3 3 3
2 1 2 1 1 1 1 0 0 0 0 1 1 1 1 1 1 1 1 2 2 1 1 1 1 1 2 3 2 3 3 3 3 3 3 3 3 3 3 3 3 3 3 3
1 1 1 1 1 1 1 1 1 0 0 1 1 1 2 2 2 2 1 1 1 1 0 0 1 2 2 2 2 2 3 3 3 3 3 3 3 3 3 3 3 3 3 3
1 1 1 2 1 1 1 1 1 1 0 0 1 1 2 1 0 1 1 1 0 1 0 1 1 2 2 2 2 2 2 2 2 3 3 2 2 2 2 2 2 2 3 3
1 1 1 2 1 1 1 1 1 1 2 1 1 1 0 1 1 1 0 0 1 1 1 1 1 1 1 1 2 2 2 2 2 3 2 2 2 2 2 2 2 2 2 2
1 1 1 2 2 1 0 0 0 1 0 0 1 1 1 0 1 0 1 1 1 1 1 1 1 1 1 1 1 2 2 2 2 2 2 2 3 3 2 2 3 2 2 2
1 1 1 1 1 1 0 1 1 1 2 2 1 1 0 0 1 1 1 1 1 1 0 0 1 1 1 1 1 1 1 1 2 2 2 2 2 2 2 3 2 2 2 2
Wind_Direction
231 238 240 243 250 245 225 211 212 231 233 249 242 233 232 210 187 170 160 169 177 180 185 186 182 184 182 183 181 177 173 177 185 184 176 167 168 172 169 166 169 164 159 160
265 264 268 267 254 246 244 233 222 229 248 250 250 238 236 194 177 188 184 185 187 184 185 188 191 185 182 186 184 176 178 187 186 176 172 171 174 171 166 169 168 157 161 165
249 276 314 267 241 228 231 234 211 226 243 248 255 240 218 202 197 204 197 194 190 188 190 193 193 187 184 185 178 174 181 185 182 179 178 180 177 168 171 175 169 165 169 171
207 241 235 248 246 202 209 239 225 221 235 223 219 226 226 206 199 207 202 200 199 194 191 193 188 186 179 169 167 175 180 184 183 180 180 177 173 177 179 173 173 177 181 181
160 210 261 277 258 215 213 252 241 219 235 243 230 240 274 240 211 206 199 198 201 195 187 182 180 176 166 168 170 175 185 188 188 183 180 177 180 185 181 172 177 180 179 180
164 194 233 244 255 239 154 251 247 201 204 222 150 208 256 253 229 213 193 185 185 181 170 173 181 168 165 177 179 192 197 195 191 184 183 185 187 185 178 175 181 175 177 188
195 218 252 256 270 104 194 242 246 202 197 187 194 218 238 234 213 197 189 187 172 169 179 189 178 166 173 182 200 205 196 190 187 185 187 186 183 179 174 175 171 176 184 198
179 203 246 254 164 186 225 249 242 215 207 200 216 239 243 221 199 186 179 177 168 171 190 195 177 172 181 198 206 189 176 181 187 186 185 181 175 177 175 173 176 184 188 205
194 215 241 233 214 229 216 234 245 226 224 203 212 230 238 215 192 189 182 183 180 178 184 191 185 179 186 203 187 169 170 183 189 182 181 173 174 178 176 178 183 190 189 202
234 252 255 263 264 267 244 239 245 230 214 194 203 212 222 201 185 181 188 191 181 171 181 199 198 191 192 187 175 167 176 187 185 179 176 172 177 180 184 189 192 195 197 204
247 269 300 298 275 262 274 283 288 263 222 200 194 203 201 200 192 195 204 199 181 180 192 204 198 197 190 177 169 173 180 185 184 182 179 179 183 192 198 204 199 196 201 198
230 236 237 263 266 273 275 271 259 255 251 217 198 201 202 204 197 190 194 192 185 183 188 196 188 190 192 182 172 171 178 185 188 185 181 178 178 187 223 208 201 200 198 194
228 238 240 256 271 268 252 248 241 221 199 202 208 190 182 212 205 185 186 192 192 190 190 184 180 188 199 185 175 176 183 187 187 185 184 183 184 184 198 240 210 202 209 209
245 244 268 270 276 277 265 257 240 216 189 178 177 168 168 198 191 185 199 205 192 176 178 181 180 201 204 179 174 179 181 186 189 189 188 188 191 195 193 192 203 235 238 217
259 238 235 249 268 288 283 268 183 181 181 167 159 162 164 189 207 213 215 193 164 157 177 179 188 218 199 173 173 180 181 186 191 190 187 189 187 187 189 190 194 200 194 214
264 262 239 236 256 278 275 237 199 211 201 190 195 200 207 204 203 192 176 168 164 184 201 195 208 222 192 173 173 180 189 192 188 184 182 181 182 185 191 192 195 197 202 199
235 255 253 252 256 267 262 245 215 205 201 197 206 200 178 160 150 180 230 198 186 197 203 199 212 207 183 172 170 176 180 189 186 177 181 185 186 191 194 194 197 201 210 203
229 224 217 212 224 251 270 268 243 214 203 205 190 164 167 185 204 220 225 199 122 177 235 215 196 178 172 171 170 170 172 174 175 180 182 181 183 188 189 192 195 197 201 195
240 231 242 237 225 226 245 257 253 239 227 195 173 193 210 219 222 200 165 146 177 238 265 238 185 161 164 173 169 165 163 162 167 172 176 178 180 182 186 190 193 194 192 185
267 255 252 267 282 264 258 262 248 218 220 179 159 162 187 220 201 170 151 202 243 242 235 202 168 160 164 169 161 161 164 168 169 172 172 177 185 190 192 194 194 194 193 189
313 289 286 286 306 305 281 251 194 196 209 162 161 182 201 201 187 165 145 245 300 293 182 158 148 164 156 153 149 152 160 165 168 173 177 181 184 190 194 194 193 193 192 188
305 303 296 310 343 322 316 326 131 166 171 159 163 162 156 160 158 146 179 220 248 232 119 110 111 150 142 133 138 146 153 163 170 173 177 181 183 189 195 194 194 196 192 186
299 307 312 304 275 266 336 10 35 59 104 162 173 182 193 209 194 171 246 284 227 205 89 141 131 128 130 122 131 143 152 163 169 170 174 180 184 186 189 191 194 189 184 181
325 341 329 320 350 36 360 335 359 31 96 122 189 199 187 172 338 303 249 276 292 163 147 156 118 112 116 116 127 138 152 160 160 159 160 164 164 167 172 173 177 178 176 174
291 305 337 354 356 309 283 324 34 37 40 27 7 343 282 194 202 236 111 138 180 130 102 136 128 115 106 116 135 148 157 156 155 150 151 154 157 159 158 159 164 166 163 161
295 288 288 268 249 254 256 110 162 248 207 359 328 319 331 4 108 118 111 115 125 90 90 149 162 135 117 134 143 154 158 159 154 153 155 156 155 155 159 161 162 166 165 164
343 344 346 338 328 308 200 180 195 224 214 201 237 283 245 144 120 102 92 101 119 110 116 155 160 144 130 128 131 139 149 147 148 153 159 160 160 162 163 163 167 162 160 158
Height
1522 1518 1518 1518 1518 1517 1520 1523 1529 1524 1521 1514 1511 1509 1508 1507 1508 1509 1509 1511 1512 1514 1516 1518 1521 1523 1526 1528 1530 1533 1535 1537 1538 1540 1541 1543 1544 1545 1546 1547 1548 1549 1549 1550
1521 1516 1516 1517 1514 1514 1515 1514 1516 1516 1515 1508 1507 1507 1507 1506 1507 1507 1507 1509 1510 1512 1514 1516 1518 1520 1523 1525 1528 1530 1532 1534 1536 1537 1539 1540 1542 1543 1544 1545 1546 1547 1548 1548
1527 1519 1517 1522 1512 1511 1511 1509 1511 1514 1510 1505 1506 1505 1504 1504 1505 1505 1505 1506 1508 1509 1511 1513 1515 1518 1519 1522 1525 1527 1529 1531 1533 1534 1536 1538 1539 1541 1542 1543 1544 1545 1546 1547
1526 1524 1529 1515 1503 1503 1505 1505 1504 1503 1503 1502 1502 1502 1502 1502 1502 1502 1503 1504 1505 1507 1508 1510 1513 1515 1517 1519 1521 1523 1525 1527 1529 1531 1533 1535 1536 1538 1539 1540 1542 1543 1544 1544
1527 1527 1520 1509 1501 1501 1503 1504 1500 1499 1499 1499 1499 1500 1500 1499 1499 1499 1500 1501 1503 1504 1505 1508 1510 1512 1514 1516 1518 1520 1522 1524 1526 1528 1529 1531 1533 1534 1536 1538 1539 1540 1541 1542
1524 1525 1523 1508 1497 1495 1499 1504 1496 1495 1496 1496 1497 1502 1498 1495 1496 1496 1497 1499 1500 1501 1503 1504 1507 1509 1511 1513 1515 1516 1518 1520 1522 1524 1526 1527 1529 1531 1533 1534 1536 1537 1538 1539
1520 1521 1513 1499 1494 1495 1506 1502 1493 1492 1492 1493 1494 1495 1493 1492 1493 1493 1494 1496 1497 1498 1500 1501 1503 1505 1507 1509 1511 1513 1515 1517 1519 1520 1522 1524 1526 1528 1529 1531 1532 1534 1535 1536
1517 1519 1513 1494 1494 1497 1495 1490 1490 1489 1489 1490 1490 1490 1490 1489 1489 1490 1491 1493 1494 1495 1497 1499 1500 1502 1504 1506 1508 1510 1512 1513 1515 1517 1519 1520 1522 1524 1526 1527 1529 1530 1531 1532
1505 1503 1493 1490 1490 1489 1489 1488 1487 1486 1486 1487 1487 1487 1487 1486 1486 1487 1488 1490 1491 1493 1494 1496 1497 1499 1500 1502 1505 1507 1508 1510 1511 1513 1515 1516 1518 1520 1522 1523 1525 1526 1527 1528
1497 1492 1489 1488 1487 1487 1486 1485 1484 1483 1483 1484 1484 1484 1484 1484 1484 1485 1486 1487 1489 1490 1491 1492 1494 1496 1497 1499 1501 1503 1504 1506 1508 1509 1511 1513 1514 1516 1518 1519 1520 1521 1522 1523
1493 1489 1486 1484 1484 1484 1483 1482 1480 1480 1480 1481 1481 1481 1481 1481 1481 1482 1483 1485 1486 1487 1488 1489 1491 1493 1494 1496 1498 1499 1501 1502 1504 1505 1507 1509 1510 1512 1513 1514 1516 1517 1518 1519
1489 1485 1485 1483 1481 1480 1480 1479 1478 1477 1477 1478 1478 1478 1478 1479 1479 1480 1481 1482 1483 1484 1485 1486 1488 1489 1491 1493 1494 1495 1497 1498 1500 1501 1503 1505 1506 1507 1509 1511 1512 1513 1515 1516
1480 1480 1480 1478 1478 1477 1477 1476 1476 1475 1475 1475 1476 1475 1476 1476 1476 1477 1478 1479 1480 1481 1482 1483 1484 1486 1487 1489 1490 1491 1493 1494 1496 1497 1499 1500 1502 1503 1504 1506 1508 1509 1510 1511
1476 1476 1475 1475 1474 1474 1473 1473 1473 1472 1472 1472 1473 1473 1473 1473 1474 1474 1475 1476 1477 1478 1479 1480 1481 1482 1483 1484 1486 1487 1489 1490 1492 1493 1495 1496 1498 1499 1500 1501 1502 1503 1505 1506
1472 1472 1472 1471 1471 1471 1470 1470 1469 1469 1469 1470 1470 1471 1471 1471 1471 1471 1472 1473 1473 1474 1475 1476 1476 1477 1479 1480 1482 1483 1485 1486 1488 1490 1491 1493 1494 1495 1496 1497 1498 1499 1500 1501
1468 1468 1468 1468 1467 1467 1467 1466 1466 1466 1466 1467 1467 1468 1468 1468 1468 1468 1469 1470 1470 1470 1470 1471 1472 1473 1475 1476 1478 1479 1481 1482 1484 1485 1487 1488 1489 1491 1492 1493 1494 1494 1495 1496
1465 1464 1464 1464 1464 1464 1464 1463 1462 1463 1463 1463 1464 1464 1465 1465 1465 1465 1466 1466 1466 1467 1467 1468 1468 1469 1471 1472 1473 1475 1476 1478 1479 1480 1482 1483 1484 1486 1487 1488 1489 1490 1491 1492
1462 1461 1461 1461 1460 1461 1460 1460 1460 1460 1460 1461 1461 1461 1461 1461 1461 1462 1462 1463 1463 1463 1464 1465 1465 1466 1467 1468 1470 1471 1472 1473 1474 1475 1477 1478 1480 1481 1482 1483 1484 1485 1486 1487
1457 1457 1457 1457 1458 1458 1458 1457 1457 1457 1457 1457 1457 1458 1458 1458 1459 1459 1459 1460 1459 1459 1460 1461 1462 1463 1463 1465 1466 1467 1468 1469 1470 1471 1472 1473 1475 1476 1477 1478 1479 1480 1481 1482
1454 1454 1454 1454 1454 1455 1454 1454 1454 1454 1454 1454 1454 1454 1454 1455 1456 1456 1456 1456 1456 1457 1458 1458 1458 1459 1460 1461 1462 1463 1464 1465 1466 1467 1468 1469 1470 1471 1473 1474 1475 1476 1476 1477
1452 1451 1451 1450 1451 1451 1452 1451 1451 1451 1451 1451 1451 1451 1451 1452 1453 1453 1453 1453 1454 1455 1455 1455 1455 1456 1456 1457 1459 1459 1460 1461 1462 1463 1464 1465 1466 1467 1468 1469 1470 1471 1472 1473
1449 1449 1448 1448 1448 1448 1449 1449 1448 1448 1448 1448 1448 1449 1449 1449 1450 1450 1450 1451 1451 1451 1451 1451 1452 1452 1453 1454 1455 1455 1456 1457 1458 1459 1460 1461 1462 1463 1464 1465 1466 1467 1468 1468
1447 1447 1446 1446 1446 1446 1446 1446 1445 1445 1445 1445 1446 1446 1446 1447 1447 1447 1447 1448 1449 1449 1449 1449 1449 1450 1450 1450 1451 1452 1453 1453 1454 1455 1456 1457 1458 1459 1460 1461 1462 1462 1463 1464
1445 1444 1444 1444 1444 1443 1443 1443 1443 1443 1443 1443 1444 1444 1444 1444 1445 1445 1446 1446 1446 1446 1446 1447 1447 1447 1447 1447 1448 1448 1449 1450 1451 1452 1453 1453 1454 1455 1456 1457 1457 1458 1458 1459
1443 1443 1442 1442 1441 1441 1441 1441 1441 1441 1441 1441 1442 1442 1442 1443 1442 1443 1443 1443 1443 1443 1443 1443 1444 1444 1444 1444 1445 1445 1446 1446 1447 1448 1449 1449 1450 1450 1451 1452 1453 1453 1453 1454
1441 1440 1440 1440 1440 1440 1439 1439 1439 1439 1439 1439 1439 1439 1440 1440 1440 1440 1440 1441 1441 1441 1440 1441 1441 1441 1441 1442 1442 1442 1443 1443 1444 1444 1445 1445 1446 1447 1447 1448 1448 1449 1449 1450
1439 1439 1438 1438 1438 1438 1437 1437 1437 1437 1437 1436 1436 1436 1437 1437 1437 1437 1438 1438 1438 1438 1438 1438 1438 1438 1439 1439 1439 1439 1440 1440 1440 1440 1441 1441 1442 1443 1443 1444 1444 1445 1445 1446